Location: Dompnac
(44.5644°N, 4.1026°E)
Time: 11:38:39
(UTC+00:00)

Cosmos 1891 Rocket - Pass Details

Date: 20 January 2021
Orbit: 934 x 1018 km, 82.9° (Epoch: 24 February)

Event Time Altitude Azimuth Distance (km) Brightness Sun altitude
Rises 17:12:18 0° 340° (NNW) 3,601 7.5 -6.7°
Reaches altitude 10° 17:15:11 10° 328° (NNW) 2,652 6.9 -7.2°
Maximum altitude 17:19:58 25° 276° (W) 1,785 6.8 -7.9°
Drops below altitude 10° 17:24:46 10° 223° (SW) 2,657 7.9 -8.8°
Sets 17:27:40 0° 210° (SSW) 3,607 8.3 -9.2°
